sat.trackr.live / text

‹ back to catalog

DROID.002

NORAD 63223 · 2025-052P

PAYLOAD ACTIVE UNKNOWN

§ Identity

Operator
Country
US
Launch date
2025-03-15
Launch site
AFWTR
Launch vehicle
Mass (kg)
RCS (m²)

External: N2YO · Heavens-Above · Gunter

§ Orbital elements

Epoch: 2026-05-25T03:31:29.051328Z

Period
94.55 min
Inclination
97.3962°
Eccentricity
0.0003124
Mean motion
15.22958557 rev/d
Perigee alt
494.8 km
Apogee alt
499.1 km
Semi-major
6,875.1 km
B*
2.2646e-4
RAAN
38.3456°
Arg perigee
188.7597°
Mean anomaly
171.3586°
Rev number
6,636

§ Raw data

DROID.0021 63223U 25052P   26145.14686402  .00005249  00000+0  22646-3 0  99912 63223  97.3962  38.3456 0003124 188.7597 171.3586 15.22958557 66369

JSON: /api/v1/satellites/63223 · /tle

For live sub-satellite position, see the globe view (requires WebGL).

§ Visibility from observer

Set your observer location to see the next 7 days of passes ≥ 10°. The values pass through the URL so the page stays shareable.

No JS? Fill the form by hand. The geolocation button needs JavaScript.

§ Radio — SatNOGS DB

ModeDescriptionDownlinkUplink
FM Mode S - Transmitter 1 2.240 GHz
FM Mode S - Transmitter 2 2.243 GHz
FM Mode X - Transmitter 8.210 GHz

3 transmitters · refreshed weekly from db.satnogs.org